THOR ABLESTAR DEB, 656

Orbit data source: Space-Track

THOR ABLESTAR DEB, 656 is space debris in LEO originally from a launch on Thu, 29 Jun 1961 UTC launched from the Air Force Eastern Test Range (AFETR). Debris objects in space refer to the collection of defunct objects orbiting the Earth. Examples of debris include non-operational satellites, rocket bodies, and fragments generated from explosions, collisions, or faulty payload assembly.

Loading next visibility...
Identifier
656, 1961-015HH
Orbit
LEO
Country
Flag of USUS
Related business
Manufacturer
Unknown
Mission
Spacecraft
Bus & Motor
Unknown
Mass
Unknown
Launch date (UTC)
1961-06-29 (64 years ago)
Launch vehicle
Unknown
Launch site
Air Force Eastern Test Range (AFETR)
Object type
Payload
Rocket body
Debris
Shape & HBR
Unknown shape, 0.2 m
Radar Cross Section
Small (<0.1 m²)

Expand to show TLE details & history
Last TLE update: 14 hours ago

TLE from 14 hours ago
0 THOR ABLESTAR DEB
1   656U 61015HH  25300.30520410  .00002139  00000-0  42591-2 0  9993
2   656  66.2934 319.6707 0671313 235.9485 117.6049 12.72570432937368
Epoch: 2025-10-27T07:19Z
TLE epoch observation values (Epoch: 2025-10-27T07:19:29.634Z)
Latitude
0.00002°
Longitude
173.88828°
Altitude
1,640.63 km
Speed
6.929 km/s
True Right ascension
21h 18m 40s
True Declination
0° 00' 00"
Sunlit
Object was in daylight at epoch
Visualization orbit readout
Latitude
Unknown
Longitude
Unknown
Altitude
Unknown
Speed
Unknown
Apparent Right ascension
Unknown
Apparent Declination
Unknown
Sunlit
N/A
Visualization observer readout
Local Sidereal Time
17:09:10
Azimuth
Unknown
Elevation
Unknown
Doppler factor
Unknown
Orbital elements
Apogee altitude
1,890.162 km
Perigee altitude
849.875 km
Semi-major axis
7,748.155 km
Eccentricity
0.06713
Inclination
66.2934°
RAAN
319.6707°
Arg. of periapsis
235.9485°
True anomaly
124.15217°
Mean anomaly
117.6049°
Eccentric anomaly
120.90513°
Mean motion
3.18233 °/min
Orbital period
113.12 mins
BSTAR
0.0042591
Loading maneuver chart data...
Computing Atmospheric mass density...

Documentation

Showing up to 5 results
|